Regional Weather Roundup
Issued by NWS Charleston, SC

Current Version | Previous Version | Graphics & Text | Print | Product List | Glossary On
Versions: 1 2 3 4 5 6 7 8 9 10 11 12 13 14 15 16 17 18 19 20 21 22 23 24 25 26 27 28 29 30 31 32 33 34 35 36 37 38 39 40 41 42 43 44 45 46 47 48 49 50
000
ASUS42 KCHS 252310
RWRCHS
REGIONAL WEATHER ROUNDUP
NATIONAL WEATHER SERVICE CHARLESTON SC
600 PM EST TUE NOV 25 2014

NOTE: "FAIR" INDICATES FEW OR NO CLOUDS BELOW 12,000 FEET WITH NO
SIGNIFICANT WEATHER AND/OR OBSTRUCTIONS TO VISIBILITY.

NOT ALL STATIONS ARE QUALITY CONTROLLED BY THE NATIONAL
WEATHER SERVICE. USE DATA WITH CAUTION...ESPECIALLY
DEWPOINT OBSERVATIONS.

SCZ027-030-031-034>040-042>050-260000-
...SOUTHEAST SOUTH CAROLINA...

CITY           SKY/WX    TMP DP  RH WIND       PRES   REMARKS
N CHARLESTON   LGT RAIN  63  62  97 CALM      30.02R
WATERFRONT PRK   N/A     63 N/A N/A E5          N/A
MOUNT PLEASANT CLOUDY    64  64 100 CALM      30.03R
JOHNS ISLAND   LGT RAIN  64  64 100 CALM      30.03S
PINOPOLIS      NOT AVBL
MONCKS CORNER  RAIN      63  63 100 CALM      30.01S
SUMMERVILLE    RAIN      63  63 100 NE3       30.02S
BEAUFORT MCAS  LGT RAIN  63  61  93 CALM      30.00R FOG
BEAUFORT ARPT  LGT RAIN  63  63 100 CALM      30.01R
HILTON HEAD IS MOCLDY    63  63 100 N8        30.02R
WALTERBORO     LGT RAIN  63 N/A N/A E3        30.01S
ALLENDALE      LGT RAIN  59  57  94 CALM      30.00S

...SOUTHERN MIDLANDS AND PEE DEE...

CITY           SKY/WX    TMP DP  RH WIND       PRES   REMARKS
GEORGETOWN     NOT AVBL
KINGSTREE      NOT AVBL
ORANGEBURG     CLOUDY    60  57  89 E3        30.00F
BARNWELL         N/A     57  55  94 CALM      30.03R
AIKEN          CLOUDY    54  54 100 NW5       30.05R
MANNING        NOT AVBL
COLUMBIA       CLOUDY    58  54  86 NW3       30.01F
SUMTER         CLOUDY    59  56  91 E3        29.99F
FLORENCE       LGT RAIN  62  60  93 CALM      30.03S FOG
MYRTLE BEACH   CLOUDY    64  61  88 NE8       30.03R
N MYRTLE BEACH CLOUDY    64  62  93 N3        30.02S

$$

GAZ063-065-086>088-099>101-113>116-118-119-134>141-150-260000-
...SOUTHEAST GEORGIA...

CITY           SKY/WX    TMP DP  RH WIND       PRES   REMARKS
SAVANNAH ARPT  LGT RAIN  60  57  89 CALM      30.01S
HUNTER AAF     LGT RAIN  60  60 100 N5        29.98F VSB 1
FORT STEWART   CLOUDY    57  54  88 N3        29.99F
STATESBORO     NOT AVBL
SYLVANIA       RAIN      56  55  94 CALM      30.01S
CLAXTON        DRIZZLE   55  55 100 CALM      30.00F

...CSRA...CENTRAL AND FAR SOUTHEAST GEORGIA...

CITY           SKY/WX    TMP DP  RH WIND       PRES   REMARKS
THOMSON        CLOUDY    53  53 100 CALM      30.08R
AUGUSTA-BUSH   CLOUDY    54  52  93 N7        30.02R
AUGUSTA-DANIEL LGT RAIN  54  51  90 N6        30.02R
SWAINSBORO     CLOUDY   N/A N/A N/A CALM      30.01F
VIDALIA        CLOUDY    52  50  93 CALM      30.01R
HAZLEHURST     CLOUDY    51  51 100 CALM      30.01R
ALMA           CLOUDY    51  50  96 NE3       29.99S
WAYCROSS       CLOUDY    58  56  93 NE5       30.00R
JESUP          CLOUDY    59  55  88 CALM      29.99S
BAXLEY         CLOUDY    54  52  94 NE5       29.99S
BRUNSWICK      CLOUDY    63  61  94 NE3       29.98F
SAINT SIMONS   RAIN      62  61  96 N7        29.97F FOG

$$

SCZ027-028-034-036>038-045-046-048>050-GAZ119-141-260000-
...LAKE AND SUPPLEMENTAL COASTAL OBSERVATIONS...

STATION/POSITION TIME  TEMP    WIND        PRES    WAVE   SWELL
                       AIR SEA DIR/SP/G            HT/PER HT/PER/DIR
                 (UTC) (F)     (DEG/KT/KT) (MB)    (FT/S) (FT/S/D)
UPR LAKE MARION  NOT AVBL
WINYAH BAY       2200   63      50/  3     1015.0S
LAKE MURRAY      2200   56        CALM     1015.9F
ACE BASIN NERRS  2200   62        CALM     1016.0S
FORT PULASKI     2300   61      60/  8/  9 1015.8R
SAPELO ISLAND    2200   62      10/  6     1015.0S

$$

ANZ835-935-AMZ111-154-330-350-352-354-370-450-454-472-260000-
...C-MAN AND BUOY OBSERVATIONS...

STATION/POSITION TIME  TEMP    WIND        PRES    WAVE   SWELL
                       AIR SEA DIR/SP/G            HT/PER HT/PER/DIR
                 (UTC) (F)     (DEG/KT/KT) (MB)    (FT/S) (FT/S/D)
FOLLY BEACH CMAN 2200   61      40/  3/  4 1016.1R
BUOY 41004       2300   69 74   50/  8/ 10 1015.6R   4/ 8   3/ 8
BUOY 41008       2300   62 64   10/ 14/ 16 1015.5R   3/ 9   3/120/ 9
CAPERS NEARSHORE 2200   60      80/  4/  6   N/A
FRIPP NEARSHORE  NOT AVBL


STATION/POSITION TIME  TEMP    WIND        PRES    WAVE   SWELL
                       AIR SEA DIR/SP/G            HT/PER HT/PER/DIR
                 (UTC) (F)     (DEG/KT/KT) (MB)    (FT/S) (FT/S/D)
5E ST. MARYS GA  2300      62                N/A     3/ 8
FRYING PAN BUOY  2300   65 70   70/ 10/ 12 1017.4R   3/ 8   3/130/ 8
BUOY 41025       2300   67      30/  4/  6 1017.5R   5/ 7   5/130/ 7
CAPE LOOKOUT NC  2200   62      50/  2/  3 1016.9R
BUOY 41002       2208   75 74  190/ 16/ 17 1018.4R   7/ 7   5/120/ 9
BUOY 41010       2300   78 78  160/ 17/ 21 1013.9F   7/ 8
ST AUGUSTINE FL  2300   66     340/  6/  7 1014.0S


$$



USA.gov is the U.S. government's official web portal to all federal, state and local government web resources and services.